Location: Lake_James_State_Park
(35.7270°N, 81.9020°W)
Time: 08:22:01
(UTC-05:00)

Daily predictions for brighter satellites

Satellite Brightness Start Highest point End
(mag) Time Altitude Azimuth Time Altitude Azimuth Time Altitude Azimuth
OAO 2 Rocket 3.8 18:35:32 10° SW 18:40:20 50° SSE 18:45:05 10° E
Cosmos 2219 Rocket 3.2 18:38:24 10° NNW 18:43:52 52° WSW 18:49:18 10° S
COSMO-SKYMED 1 3.0 18:40:34 10° N 18:44:54 70° WNW 18:49:12 10° SSW
MOS 1 4.3 18:49:12 10° SSE 18:54:50 84° ENE 19:00:33 10° NNW
Cosmos 2227 Rocket 3.0 18:49:55 10° SW 18:55:26 55° WNW 19:00:59 10° NNE
FENGYUN 3A 3.8 18:50:46 10° S 18:56:09 82° WSW 19:01:36 10° NNW
SeaSat 1 3.9 18:53:12 10° E 18:56:30 18° NE 18:59:48 10° N
SJ-6B 4.1 18:55:39 10° ESE 18:58:19 19° ENE 19:01:01 10° NNE
USA 215 3.4 18:51:58 10° NE 18:58:23 56° SE 19:04:44 10° SSW
Envisat 4.3 18:55:04 10° ESE 18:58:37 20° ENE 19:02:11 10° NNE
Cosmos 2237 Rocket 2.4 18:53:58 10° NNW 18:59:36 80° WSW 19:05:13 10° SSE
Thor Agena Rocket 4.3 18:58:16 10° NE 19:02:37 28° E 19:06:56 10° SSE
SL-16 R/B 2.6 18:58:09 10° N 19:03:32 43° ENE 19:08:51 10° SE
Tiangong 2 1.4 19:00:29 10° WNW 19:03:36 52° NNE 19:05:47 17° E
FREGAT/IRIS 3.3 19:02:25 10° SE 19:05:06 32° ENE 19:07:47 10° N
USA 32 4.5 19:00:44 10° SSE 19:05:30 38° E 19:10:18 10° NNE
Cosmos 44 Rocket 4.0 19:02:14 10° NNW 19:06:53 36° NE 19:11:24 11° ESE
H-2A R/B 2.7 19:03:56 10° SSE 19:07:48 62° ENE 19:11:40 10° N
CZ-4 R/B 4.3 19:05:45 10° SSW 19:08:56 22° W 19:12:05 10° NW
Cosmos 1674 Rocket 3.4 19:04:47 10° N 19:09:08 77° E 19:13:26 10° S
Cosmos 2297 Rocket 3.2 19:03:58 10° SW 19:09:23 48° WNW 19:14:53 10° N
HJ-1C 4.3 19:07:13 10° SE 19:10:11 28° ENE 19:13:08 10° NNE
Meteor 1-14 Rocket 4.2 19:04:33 10° S 19:10:17 80° E 19:16:12 10° N
MOS 1-B Rocket 4.5 19:04:18 10° S 19:10:54 69° WSW 19:16:44 10° NNW
Cosmos 2034 Rocket 4.4 19:06:37 10° N 19:12:36 41° ENE 19:18:31 10° SSE
IUS-18 SRM-1 4.1 19:11:56 10° SW 19:13:19 14° S 19:15:11 10° SE
Cosmos 1908 Rocket 3.5 19:09:38 10° S 19:14:03 67° E 19:18:30 10° NNE
Okean 1 4.0 19:11:14 10° NNE 19:14:48 31° ENE 19:18:20 10° SE
Okean 3 3.3 19:12:43 10° N 19:16:54 76° E 19:21:04 10° S
Meteor 1-20 Rocket 4.2 19:11:30 10° S 19:17:09 76° E 19:22:56 10° NNE
Cosmos 1633 2.4 19:14:13 10° S 19:17:45 88° W 19:21:20 10° N
ERS-2 2.1 19:17:12 10° SSE 19:20:49 62° ENE 19:24:28 10° N
Cosmos 921 Rocket 3.8 19:17:22 10° N 19:21:24 31° ENE 19:23:43 20° ESE
CZ-2D R/B 3.9 19:22:37 16° SE 19:25:11 33° ENE 19:28:43 10° N
ALOS 4.2 19:24:03 10° SSW 19:28:12 32° W 19:32:23 10° NNW
Cosmos 1812 3.4 19:24:46 10° NNW 19:28:35 58° W 19:32:22 10° S
CENTAUR R/B 2.7 19:24:55 10° SW 19:30:45 71° WNW 19:37:28 10° NNE
CZ-4C R/B 4.4 19:32:02 10° N 19:36:17 16° NE 19:37:37 15° NE
Meteor 1-18 Rocket 4.1 19:30:57 10° N 19:36:34 86° E 19:42:06 10° S
Cosmos 1602 3.8 19:33:42 10° S 19:37:30 51° E 19:41:18 10° NNE
Cosmos 44 3.4 19:32:52 10° NNW 19:37:59 89° ENE 19:43:18 10° SSE
Cosmos 2263 Rocket 3.9 19:36:10 10° SSE 19:37:15 14° SE 19:37:15 14° SE
Resurs 01 Rocket 3.0 19:42:38 23° NE 19:42:38 23° NE 19:44:56 10° NNE
Cosmos 1975 Rocket 3.2 19:39:45 10° N 19:44:05 51° E 19:46:31 24° SSE
Lacrosse 5 3.9 19:44:11 10° WNW 19:48:22 26° WSW 19:52:31 10° S
Cosmos 1452 Rocket 4.2 19:44:07 10° NNW 19:49:15 56° WSW 19:54:22 10° S
Meteor 1-19 Rocket 4.2 19:46:29 10° N 19:51:52 52° ENE 19:54:49 26° SE
Meteor 1-11 Rocket 3.9 19:46:46 10° SSE 19:52:02 47° E 19:57:25 10° NNE
Cosmos 1437 Rocket 3.0 19:48:18 10° SSW 19:52:18 75° W 19:56:25 10° N
Iridium 4 Rocket 3.7 19:49:07 10° N 19:53:51 60° W 19:58:10 10° SSW
Geosat 3.9 19:51:12 23° NE 19:54:19 64° ESE 19:59:17 10° SSW
Meteor 2-4 Rocket 4.2 19:49:55 10° N 19:54:54 38° ENE 19:54:54 38° ENE
Cosmos 2227 4.1 19:51:53 10° SSW 19:57:37 80° ESE 20:03:12 11° NNE
Gbstr 26 Del rocket 2.5 19:55:04 10° SW 19:58:46 85° SSE 19:58:46 85° SSE
COSMOS 2455 3.1 19:53:26 10° S 19:59:05 45° ESE 19:59:33 44° E
CRYOSAT 2 4.3 19:54:24 10° N 19:59:16 85° W 20:04:08 10° S
Tsikada Rocket 4.0 19:57:00 10° S 20:03:24 87° W 20:09:51 10° N
OAO 2 Rocket 3.4 20:20:01 10° W 20:24:26 70° WSW 20:24:26 70° WSW
Okean 2 Rocket 3.9 20:25:07 10° SSW 20:29:20 48° W 20:33:37 10° N
SeaSat 1 2.9 20:32:53 51° SW 20:33:35 56° WSW 20:38:26 10° NNW
Envisat 4.1 20:32:29 10° S 20:37:17 43° W 20:42:06 10° NNW
Tiangong 2 4.5 20:37:38 10° W 20:38:04 12° W 20:38:04 12° W
USA 215 4.3 20:37:21 21° NNE 20:41:11 40° NW 20:47:10 10° WSW
SL-16 R/B 4.4 20:43:00 10° NW 20:47:17 23° W 20:51:34 10° SSW
USA 267 4.2 21:14:32 37° NNW 21:14:32 37° NNW 21:18:33 10° NW
Resurs 01 Rocket 4.5 21:20:12 14° NW 21:20:12 14° NW 21:21:02 10° NW
CZ-4C R/B 3.9 21:18:48 10° NNW 21:22:51 36° NNW 21:22:51 36° NNW
CZ-3C R/B 4.0 21:21:52 10° SW 22:12:39 - ESE 21:25:19 32° SSW
